Weather reports worldwide

Advertisment
Messina, Italy (16420): temperature & dewpoint: 22.01.2020 08:00:00 - 28.01.2020 08:00:00 (CET)Messina, Italy (16420): wind speed: 22.01.2020 08:00:00 - 28.01.2020 08:00:00 (CET)Messina, Italy (16420): wind direction: 22.01.2020 08:00:00 - 28.01.2020 08:00:00 (CET)Messina, Italy (16420): reduced air pressure: 22.01.2020 08:00:00 - 28.01.2020 08:00:00 (CET)Messina, Italy (16420): visibility: 22.01.2020 08:00:00 - 28.01.2020 08:00:00 (CET)Messina, Italy (16420): sunshine duration: 22.01.2020 08:00:00 - 28.01.2020 08:00:00 (CET)
Date & Time tt [°C] td [°C] ff [km/h] ff [kn] dd ppp [hPa] vv [km] sd [min]
28.01.2020 08:00:00 13,2 8,9 8 4 N 1021,5 20 0
28.01.2020 07:00:00 13,4 8,5 8 4 NW 1021,5 16 -
28.01.2020 06:00:00 13,0 8,5 5 3 WNW 1021,6 12 -
28.01.2020 05:00:00 12,8 9,6 5 3 NNW 1021,6 12 -
28.01.2020 04:00:00 11,8 9,7 5 3 NNW 1021,8 12 -
28.01.2020 03:00:00 11,6 9,4 5 3 NW 1021,8 12 -
28.01.2020 02:00:00 11,6 9,5 5 3 NW 1022,1 12 -
28.01.2020 01:00:00 12,4 10,3 4 2 NW 1022,4 12 -
28.01.2020 00:00:00 12,8 10,7 5 3 N 1022,5 12 -
27.01.2020 23:00:00 13,0 10,7 5 3 N 1022,5 12 -
27.01.2020 22:00:00 13,0 10,9 5 3 NW 1022,5 12 -
27.01.2020 21:00:00 13,4 11,1 5 3 WNW 1022,5 12 -
27.01.2020 20:00:00 13,6 11,0 4 2 NNW 1022,4 16 -
27.01.2020 19:00:00 14,0 10,6 4 2 WNW 1021,9 16 -
27.01.2020 18:00:00 14,0 10,4 5 3 N 1021,4 16 -
27.01.2020 17:00:00 14,6 10,6 4 2 NW 1021,3 20 0
27.01.2020 16:00:00 15,6 10,2 4 2 NNW 1021,3 20 60
27.01.2020 15:00:00 16,0 10,1 9 5 WNW 1021,2 20 60
27.01.2020 14:00:00 16,0 10,5 8 4 WNW 1021,3 20 48
27.01.2020 13:00:00 15,2 10,2 8 4 NW 1021,5 20 24
27.01.2020 12:00:00 15,8 10,4 9 5 WNW 1021,5 14 54
27.01.2020 11:00:00 15,2 10,0 13 7 NNW 1021,3 14 60
27.01.2020 10:00:00 15,4 9,3 11 6 NNW 1021,2 14 60
27.01.2020 09:00:00 14,2 9,4 13 7 NNW 1021,0 12 60
27.01.2020 08:00:00 13,2 10,0 5 3 NNW 1020,7 12 12
27.01.2020 07:00:00 13,2 10,0 5 3 NNW 1020,3 10 -
27.01.2020 06:00:00 13,2 10,2 0 0 N 1019,9 12 -
27.01.2020 05:00:00 13,0 10,0 4 2 NE 1020,0 12 -
27.01.2020 04:00:00 13,0 10,4 4 2 N 1019,5 12 -
27.01.2020 03:00:00 13,4 10,9 5 3 WSW 1019,9 12 -
27.01.2020 02:00:00 13,6 11,3 4 2 N 1019,9 12 -
27.01.2020 01:00:00 13,4 10,9 9 5 WNW 1020,1 12 -
27.01.2020 00:00:00 13,4 10,9 8 4 N 1020,1 12 -
26.01.2020 23:00:00 13,2 11,1 5 3 WNW 1020,0 10 -
26.01.2020 22:00:00 15,2 11,4 4 2 NNE 1019,7 16 -
26.01.2020 21:00:00 14,4 9,4 4 2 N 1019,5 16 -
26.01.2020 20:00:00 14,4 9,0 4 2 NW 1019,4 16 -
26.01.2020 19:00:00 14,6 10,0 4 2 WNW 1019,1 16 -
26.01.2020 18:00:00 15,0 10,4 4 2 W 1018,6 16 0
26.01.2020 17:00:00 16,4 11,5 4 2 ENE 1018,5 20 24
26.01.2020 16:00:00 17,6 12,1 4 2 E 1018,5 20 60
26.01.2020 15:00:00 17,0 13,1 5 3 SW 1018,6 20 54
26.01.2020 14:00:00 17,2 12,3 9 5 SSW 1018,9 20 42
26.01.2020 13:00:00 17,0 13,3 11 6 SW 1019,4 20 60
26.01.2020 12:00:00 17,0 12,3 13 7 SSW 1019,9 16 60
26.01.2020 11:00:00 16,6 11,7 13 7 SSW 1020,3 14 60
26.01.2020 10:00:00 15,4 12,5 9 5 SSW 1020,3 12 48
26.01.2020 09:00:00 14,8 12,7 11 6 SSW 1019,9 10 0
26.01.2020 08:00:00 14,2 12,6 11 6 SSW 1019,5 10 0
26.01.2020 07:00:00 14,2 12,6 16 9 SSW 1020,4 10 -
26.01.2020 06:00:00 14,4 13,0 11 6 SW 1020,4 10 -
26.01.2020 05:00:00 14,4 13,0 15 8 SSW 1020,5 10 -
26.01.2020 04:00:00 14,4 13,6 15 8 SSW 1020,8 10 -
26.01.2020 03:00:00 14,4 13,0 13 7 SW 1021,5 10 -
26.01.2020 02:00:00 14,6 13,2 8 4 SW 1022,5 10 -
26.01.2020 01:00:00 14,4 13,0 11 6 SSW 1022,5 10 -
26.01.2020 00:00:00 14,6 13,2 13 7 SSW 1023,3 10 -
25.01.2020 23:00:00 14,6 13,2 15 8 SW 1023,4 10 -
25.01.2020 22:00:00 14,6 13,0 11 6 SSW 1023,5 10 -
25.01.2020 21:00:00 14,8 13,0 11 6 SSW 1023,5 10 -
25.01.2020 20:00:00 14,6 13,0 13 7 SW 1023,5 10 -
25.01.2020 19:00:00 14,6 13,3 11 6 SW 1023,6 10 -
25.01.2020 18:00:00 14,6 11,9 11 6 SSW 1023,7 10 -
25.01.2020 17:00:00 14,8 13,8 9 5 SSW 1023,7 10 0
25.01.2020 16:00:00 15,0 13,4 13 7 SW 1024,3 12 0
25.01.2020 15:00:00 15,0 13,4 11 6 SW 1024,5 12 0
25.01.2020 14:00:00 15,0 12,1 11 6 SW 1024,6 12 0
25.01.2020 13:00:00 15,0 12,5 13 7 SW 1025,5 12 0
25.01.2020 12:00:00 15,0 12,9 9 5 SSW 1026,0 12 48
25.01.2020 11:00:00 14,8 12,5 13 7 SW 1026,2 12 6
25.01.2020 10:00:00 14,2 11,2 11 6 SSW 1025,8 12 0
25.01.2020 09:00:00 14,0 10,6 11 6 SSW 1025,6 12 6
25.01.2020 08:00:00 14,2 11,7 13 7 SW 1025,6 10 0
25.01.2020 07:00:00 14,0 11,9 8 4 SW 1025,5 10 -
25.01.2020 06:00:00 13,8 11,3 8 4 SW 1025,5 14 -
25.01.2020 05:00:00 13,6 11,0 9 5 SW 1025,5 14 -
25.01.2020 04:00:00 13,6 10,4 13 7 SW 1025,9 10 -
25.01.2020 03:00:00 13,8 9,8 11 6 SW 1026,4 14 -
25.01.2020 02:00:00 13,8 9,0 11 6 SW 1026,7 14 -
25.01.2020 01:00:00 14,2 10,2 15 8 SW 1026,7 14 -
25.01.2020 00:00:00 14,4 9,6 15 8 WSW 1026,6 12 -
24.01.2020 23:00:00 14,4 11,0 21 11 SW 1026,7 12 -
24.01.2020 22:00:00 14,4 10,8 15 8 SSW 1026,7 12 -
24.01.2020 21:00:00 14,4 8,6 15 8 SW 1026,7 12 -
24.01.2020 20:00:00 14,2 8,2 11 6 SW 1026,6 14 -
24.01.2020 19:00:00 14,0 9,2 11 6 SSW 1026,6 14 -
24.01.2020 18:00:00 14,2 9,8 11 6 SW 1026,5 14 -
24.01.2020 17:00:00 14,2 8,8 13 7 SSW 1026,6 20 18
24.01.2020 16:00:00 15,0 6,5 15 8 SSW 1026,7 20 36
24.01.2020 15:00:00 15,0 9,1 16 9 SSW 1026,8 20 48
24.01.2020 14:00:00 14,8 9,0 16 9 SSW 1026,6 20 -
24.01.2020 13:00:00 15,0 5,2 22 12 SSW 1027,6 20 12
24.01.2020 12:00:00 14,0 8,6 18 10 SSW 1028,4 20 -
24.01.2020 11:00:00 13,8 10,0 16 9 SSW 1028,3 20 0
24.01.2020 10:00:00 13,8 8,6 18 10 SSW 1027,7 20 0
24.01.2020 09:00:00 13,4 8,0 18 10 SSW 1027,6 20 0
24.01.2020 08:00:00 13,2 8,1 21 11 SSW 1027,6 20 6
24.01.2020 07:00:00 13,2 8,1 13 7 S 1027,6 20 -
24.01.2020 06:00:00 13,0 8,5 15 8 SSW 1027,6 16 -
24.01.2020 05:00:00 13,0 9,4 13 7 SSW 1027,6 16 -
24.01.2020 04:00:00 13,0 7,9 13 7 SSW 1027,6 16 -
24.01.2020 03:00:00 13,0 7,5 11 6 SW 1027,6 16 -
24.01.2020 02:00:00 13,0 8,9 15 8 SW 1027,6 16 -
24.01.2020 01:00:00 13,0 9,8 13 7 SSW 1027,6 16 -
24.01.2020 00:00:00 12,8 9,6 15 8 SSW 1027,6 16 -
23.01.2020 23:00:00 12,8 10,4 11 6 SSW 1027,6 16 -
23.01.2020 22:00:00 12,0 9,7 5 3 SSW 1027,6 16 -
23.01.2020 21:00:00 12,0 9,9 2 1 WSW 1027,6 16 -
23.01.2020 20:00:00 12,4 10,0 5 3 WSW 1027,6 18 -
23.01.2020 19:00:00 12,4 10,0 4 2 NNW 1027,6 20 -
23.01.2020 18:00:00 13,2 10,4 4 2 WSW 1027,5 20 -
23.01.2020 17:00:00 14,4 8,6 4 2 N 1027,4 20 0
23.01.2020 16:00:00 16,0 7,7 8 4 NE 1027,1 20 48
23.01.2020 15:00:00 16,6 6,7 8 4 NNE 1027,1 20 60
23.01.2020 14:00:00 17,0 5,3 11 6 NNE 1027,5 20 60
23.01.2020 13:00:00 16,6 6,7 11 6 NE 1027,9 20 60
23.01.2020 12:00:00 16,2 7,9 8 4 NE 1028,6 20 60
23.01.2020 11:00:00 15,2 8,9 11 6 NE 1028,8 20 60
23.01.2020 10:00:00 14,6 6,2 5 3 NNE 1028,9 20 60
23.01.2020 09:00:00 13,2 7,9 4 2 NE 1028,9 20 60
23.01.2020 08:00:00 11,6 6,3 4 2 WNW 1028,7 20 18
23.01.2020 07:00:00 11,2 7,7 2 1 WNW 1028,7 20 -
23.01.2020 06:00:00 11,0 8,7 4 2 W 1028,7 12 -
23.01.2020 05:00:00 10,4 8,0 8 4 WSW 1028,7 12 -
23.01.2020 04:00:00 9,8 7,0 4 2 WSW 1029,1 12 -
23.01.2020 03:00:00 9,4 8,6 2 1 N 1029,7 12 -
23.01.2020 02:00:00 9,8 9,0 2 1 NNE 1029,7 12 -
23.01.2020 01:00:00 10,0 9,2 4 2 NNE 1030,0 12 -
23.01.2020 00:00:00 10,4 9,6 4 2 W 1030,0 12 -
22.01.2020 23:00:00 11,0 10,2 4 2 WNW 1030,0 12 -
22.01.2020 22:00:00 11,4 10,5 2 1 WNW 1030,1 12 -
22.01.2020 21:00:00 11,6 10,4 2 1 NE 1030,4 12 -
22.01.2020 20:00:00 12,2 10,8 0 0 N 1030,4 16 -
22.01.2020 19:00:00 13,0 11,4 4 2 WSW 1030,6 16 -
22.01.2020 18:00:00 13,2 11,6 4 2 WSW 1030,6 16 -
22.01.2020 17:00:00 13,4 11,5 5 3 SSW 1029,6 20 30
22.01.2020 16:00:00 15,0 11,8 9 5 S 1031,0 20 60
22.01.2020 15:00:00 15,0 11,4 11 6 SSW 1031,3 20 60
22.01.2020 14:00:00 14,8 11,0 8 4 SSW 1031,6 20 60
22.01.2020 13:00:00 15,0 10,6 11 6 S 1032,6 20 60
22.01.2020 12:00:00 15,2 10,4 15 8 SSW 1033,7 20 60
22.01.2020 11:00:00 14,6 10,0 16 9 SSW 1034,3 20 60
22.01.2020 10:00:00 14,2 9,8 15 8 SSW 1034,3 20 60
22.01.2020 09:00:00 13,2 9,5 15 8 SSW 1034,2 20 54
22.01.2020 08:00:00 12,0 8,1 5 3 SSW 1033,9 18 12

tt = temperature
td = dewpoint
ff = wind speed
dd = wind direction
ppp = reduced air pressure
vv = visibility
sd = sunshine duration

Next stations